Terminal Aerodrome Forecast
Issued by NWS Rapid City, SD

Home | Current Version | Previous Version | Text Only | Print | Product List | Glossary On
Versions: 1 2 3 4 5 6 7 8 9 10 11 12 13 14 15 16 17 18 19 20 21 22 23
000
FTUS43 KUNR 171700
TAFRAP
TAF
KRAP 171725Z 1718/1818 13007KT P6SM OVC004
     FM172100 12007KT P6SM OVC007
     FM180300 VRB05KT P6SM OVC004=

USA.gov is the U.S. government's official web portal to all federal, state and local government web resources and services.